Regional Weather Roundup
Issued by NWS Mobile, AL

Home | Current Version | Previous Version | Text Only | Print | Product List | Glossary On
Versions: 1 2 3 4 5 6 7 8 9 10 11 12 13 14 15 16 17 18 19 20 21 22 23 24 25 26 27 28 29 30 31 32 33 34 35 36 37 38 39 40 41 42 43 44 45 46 47 48 49 50
000
ASUS44 KMOB 011610
RWRMOB
REGIONAL WEATHER ROUNDUP
NATIONAL WEATHER SERVICE MOBILE AL
1100 AM CDT FRI AUG 01 2014

NOTE: "FAIR" INDICATES FEW OR NO CLOUDS BELOW 12,000 FEET WITH NO
      SIGNIFICANT WEATHER AND/OR OBSTRUCTIONS TO VISIBILITY.

  * THESE STATIONS ARE PART OF THE UNIVERSITY OF SOUTH ALABAMA
    MESONET AND ARE NOT UNDER NWS OR FAA QUALITY CONTROL.

ALZ061>064-011700-
COASTAL ALABAMA

CITY           SKY/WX    TMP DP  RH WIND       PRES   REMARKS
MOBILE REG APT CLOUDY    80  69  69 CALM      30.03F
BROOKLEY FIELD CLOUDY    79  70  74 NE3       30.04S
USA CAMPUS*      N/A     79  70  73 CALM      30.02S
DOG RIVER*       N/A     79  70  73 CALM      30.03S


CITY           SKY/WX    TMP DP  RH WIND       PRES   REMARKS
MOUNT VERNON*    N/A     75  68  78 CALM      30.03S
SARALAND*      NOT AVBL
BAY MINETTE*   NOT AVBL
LOXLEY*          N/A     79  68  69 CALM      30.02F
ROBERTSDALE*     N/A     79  70  73 CALM      30.01F
FAIRHOPE*        N/A     79  70  73 CALM      30.01S
ELBERTA*         N/A     79  66  65 CALM      30.01F
FOLEY*         NOT AVBL
GRAND BAY*       N/A     79  70  73 CALM      30.01S
DAUPHIN ISLND* NOT AVBL
BON SCOUR NWR* NOT AVBL
GULF SHORES    CLOUDY    79  69  71 CALM      30.01F

$$

ALZ051>060-011700-
INTERIOR SOUTHWEST AND SOUTH CENTRAL ALABAMA

CITY           SKY/WX    TMP DP  RH WIND       PRES   REMARKS
GREENVILLE     PTSUNNY   86  69  56 N6        30.02F
EVERGREEN      PTSUNNY   86  68  54 CALM      30.02F
CASTLEBERRY*   NOT AVBL
ATMORE*          N/A     81  72  74 SE3       30.03F
DIXIE*         NOT AVBL
ANDALUSIA/OPP  MOSUNNY   89  66  46 CALM      30.02F
ANDALUSIA*     NOT AVBL
FLORALA APT    PTSUNNY   86  65  49 CALM      30.03F
FLORALA*         N/A     84  66  54 SW3       29.98F

$$

FLZ001>006-011700-
WESTERN FLORIDA PANHANDLE

CITY           SKY/WX    TMP DP  RH WIND       PRES   REMARKS
PENSACOLA      CLOUDY    81  65  58 CALM      30.01F
NAS PENSACOLA  CLOUDY    82  67  60 CALM      30.01S
MILTON         CLOUDY    83  66  56 CALM      30.01F
WHTNG S FIELD  CLOUDY    85  68  56 CALM      30.01F


CITY           SKY/WX    TMP DP  RH WIND       PRES   REMARKS
WALNUT HILL*   NOT AVBL
JAY*           NOT AVBL
DUKE FIELD     PTSUNNY   84  68  58 NW3       30.01S
CRESTVIEW      PTSUNNY   87  66  49 E5        30.02F
VALPARAISO     PTSUNNY   82  66  58 SE3       30.01S
DESTIN         CLOUDY    83  70  64 CALM      30.00F

$$

MSZ076-079-011700-
INTERIOR SOUTHEAST MISSISSIPPI

CITY           SKY/WX    TMP DP  RH WIND       PRES   REMARKS
LEAKESVILLE*     N/A     72  66  83 CALM        N/A
AGRICOLA*      NOT AVBL

$$

MARINE OBSERVATIONS

STATION/POSITION TIME  TEMP    WIND        PRES    WAVE
                       AIR SEA DIR/SP/G            HT/PER
                 (UTC) (F)     (DEG/KT/KT) (MB)    (FT/S)
PASCAGOULA       1600   82      CALM  /  1 1016.4F
PETIT BOIS ISLND 1400   78      60/  6/  7 1016.7R
GRAND BAY        1500   76      50/  5     1017.0S
KATRINA CUT      1500   78      60/  7     1016.9F
CEDAR POINT      1500   76      50/  5     1016.3F
E DAUPHIN ISLAND 1458   79      40/  7/  7 1016.4S
MIDDLE BAY LIGHT 1500   78      40/  4     1016.3R
USCG MOBILE BAY  1600   78 83  130/  2/  2 1015.7R
STATE DOCKS      1600   81 83              1016.5R
MEAHER PARK      1500   78        CALM     1016.3S
WEEKS BAY        1500   76                   N/A
FORT MORGAN      1600   79      50/  6/  7 1016.0S
12 S ORANGE BCH  1600   79 83   30/  2/  4 1016.6R   1
PENSACOLA BAY    1600   86 83  140/  1/  3 1016.6R
64 S DAUPHIN ISL 1532   82 85  330/  4/  6 1016.7R
67 S FORT MORGAN 1500   82                 1016.3S

$$

SELECTED LOCATIONS ACROSS THE REGION

CITY           SKY/WX    TMP DP  RH WIND       PRES   REMARKS
NEW ORLEANS    CLOUDY    86  69  56 S9        30.01S
GULFPORT       CLOUDY    83  67  58 NE5       30.02S
PASCAGOULA AP  CLOUDY    80  68  66 CALM      30.03S
PASCAGOULA*      N/A     81  70  69 CALM      30.02S
HATTIESBURG    LGT RAIN  73  68  84 MISG      30.04F
LAUREL         CLOUDY    70  66  88 NE3       30.05S
MERIDIAN       CLOUDY    82  63  52 NW3       30.03F
JACKSON        CLOUDY    75  65  70 E3        30.04R
MONTGOMERY     PTSUNNY   83  70  64 VRB3      30.04S
TROY           MOSUNNY   84  71  65 VRB3      30.03F
KINSTON*       NOT AVBL
GENEVA*          N/A     84  68  58 CALM      30.02F
ASHFORD*       NOT AVBL
DOTHAN         MOSUNNY   85  68  56 CALM      30.05F
PANAMA CITY    PTSUNNY   87  63  44 W3        30.00F

$$




USA.gov is the U.S. government's official web portal to all federal, state and local government web resources and services.